Kalamata, Greece

7:36 PM EET on November 23, 2017 (GMT +0200)
Kalamata Air Base

Weather History for LGKL - November, 2013

Change the Weather History Date:

Saturday, November 2, 2013

  Actual Average Record
Temperature  
Mean Temperature 65 °F -  
Max Temperature 75 °F 69 °F 78 °F (2003)
Min Temperature 55 °F 50 °F 47 °F (2014)
Growing Degree Days 15 (Base 50)    
Moisture  
Dew Point 57 °F    
Average Humidity 79    
Maximum Humidity 94    
Minimum Humidity 50    
Precipitation  
Precipitation 0.00 in 0.19 in - ()
Sea Level Pressure  
Sea Level Pressure 30.12 in    
Wind  
Wind Speed 2 mph ()    
Max Wind Speed 7 mph    
Max Gust Speed -    
Visibility 5.7 miles    
Events Rain    
Averages and records for this station are not official NWS values.
T = Trace of Precipitation, MM = Missing Value Source: Averaged Metar Reports

Daily Weather History Graph

Daily Weather History Graph

Search for Another Location

Airport or City:

Trip Planner

Search our weather history database for the weather conditions in past years. The results will help you decide how hot, cold, wet, or windy it might be!

Date:

Astronomy

Nov. 02, 2013 Rise Set
Actual Time 6:57 AM EET 5:33 PM EET
Civil Twilight 6:30 AM EET 6:00 PM EET
Nautical Twilight 5:59 AM EET 6:31 PM EET
Astronomical Twilight 5:28 AM EET 7:01 PM EET
Moon 5:35 AM EET (11/2) 4:51 PM EET (11/2)
Length of Visible Light 11h 30m
Length of Day
10h 36m
Waning Crescent, 2% of the Moon is Illuminated
Nov 2
Waning Crescent
Nov 3
New
Nov 10
First Quarter
Nov 17
Full
Nov 25
Last Quarter

Hourly Weather History & Observations

Time (EET) Temp. Dew Point Humidity Pressure Visibility Wind Dir Wind Speed Gust Speed Precip Events Conditions
12:20 AM 59.0 °F 57.2 °F 94% 30.15 in - Variable 3.5 mph - N/A Rain Light Rain
12:50 AM 59.0 °F 57.2 °F 94% 30.15 in - Variable 2.3 mph - N/A   Unknown
1:20 AM 59.0 °F 57.2 °F 94% 30.15 in - Variable 2.3 mph - N/A   Unknown
1:50 AM 59.0 °F 57.2 °F 94% 30.12 in - Variable 2.3 mph - N/A   Unknown
2:20 AM 59.0 °F 57.2 °F 94% 30.12 in - Variable 1.2 mph - N/A   Unknown
2:50 AM 59.0 °F 55.4 °F 88% 30.12 in - Variable 2.3 mph - N/A   Unknown
3:20 AM 59.0 °F 57.2 °F 94% 30.12 in - Variable 3.5 mph - N/A   Unknown
3:50 AM 59.0 °F 55.4 °F 88% 30.12 in - Variable 2.3 mph - N/A   Unknown
4:20 AM 59.0 °F 55.4 °F 88% 30.12 in - Variable 2.3 mph - N/A   Unknown
4:50 AM 57.2 °F 55.4 °F 94% 30.12 in - Variable 3.5 mph - N/A   Unknown
5:20 AM 57.2 °F 55.4 °F 94% 30.12 in - Variable 3.5 mph - N/A   Unknown
5:50 AM 57.2 °F 55.4 °F 94% 30.12 in 5.0 mi Calm Calm - N/A   Unknown
6:20 AM 55.4 °F 53.6 °F 94% 30.12 in 5.0 mi Calm Calm - N/A   Unknown
6:50 AM 55.4 °F 53.6 °F 94% 30.12 in 5.0 mi Calm Calm - N/A   Scattered Clouds
7:20 AM 55.4 °F 53.6 °F 94% 30.12 in 4.3 mi Calm Calm - N/A   Scattered Clouds
7:50 AM 57.2 °F 53.6 °F 88% 30.12 in 4.3 mi Calm Calm - N/A   Scattered Clouds
8:20 AM 59.0 °F 55.4 °F 88% 30.15 in 4.3 mi Calm Calm - N/A   Partly Cloudy
8:50 AM 60.8 °F 57.2 °F 88% 30.15 in 5.0 mi NNW 4.6 mph - N/A   Partly Cloudy
9:20 AM 64.4 °F 59.0 °F 83% 30.12 in 5.0 mi Calm Calm - N/A   Partly Cloudy
9:50 AM 68.0 °F 59.0 °F 73% 30.15 in 5.0 mi Calm Calm - N/A   Partly Cloudy
10:20 AM 69.8 °F 59.0 °F 68% 30.15 in 5.6 mi Calm Calm - N/A   Partly Cloudy
10:50 AM 73.4 °F 57.2 °F 57% 30.12 in 6.2 mi Calm Calm - N/A   Partly Cloudy
11:20 AM 73.4 °F 57.2 °F 57% 30.12 in 6.2 mi Calm Calm - N/A   Partly Cloudy
11:50 AM 75.2 °F 55.4 °F 50% 30.12 in 6.2 mi Calm Calm - N/A   Partly Cloudy
12:20 PM 75.2 °F 57.2 °F 53% 30.12 in 6.2 mi Calm Calm - N/A   Scattered Clouds
12:50 PM 73.4 °F 57.2 °F 57% 30.09 in 6.2 mi SW 6.9 mph - N/A   Scattered Clouds
1:20 PM 73.4 °F 59.0 °F 61% 30.09 in 6.2 mi SW 6.9 mph - N/A   Scattered Clouds
1:50 PM 73.4 °F 59.0 °F 61% 30.09 in 6.2 mi SSW 6.9 mph - N/A   Scattered Clouds
2:20 PM 73.4 °F 60.8 °F 65% 30.09 in 6.2 mi SW 6.9 mph - N/A   Scattered Clouds
2:50 PM 73.4 °F 60.8 °F 65% 30.09 in 6.2 mi WSW 6.9 mph - N/A   Scattered Clouds
3:20 PM 73.4 °F 60.8 °F 65% 30.09 in 6.2 mi WSW 6.9 mph - N/A   Partly Cloudy
3:50 PM 71.6 °F 60.8 °F 69% 30.09 in 6.2 mi WSW 6.9 mph - N/A   Partly Cloudy
4:20 PM 71.6 °F 60.8 °F 69% 30.09 in 6.2 mi WSW 6.9 mph - N/A   Partly Cloudy
4:50 PM 69.8 °F 60.8 °F 73% 30.09 in 6.2 mi SW 5.8 mph - N/A   Scattered Clouds
5:20 PM 68.0 °F 59.0 °F 73% 30.09 in 6.2 mi Calm Calm - N/A   Scattered Clouds
5:50 PM 66.2 °F 59.0 °F 78% 30.09 in 6.2 mi Calm Calm - N/A   Scattered Clouds
6:20 PM 64.4 °F 59.0 °F 83% 30.09 in 6.2 mi Calm Calm - N/A   Scattered Clouds
6:50 PM 62.6 °F 57.2 °F 82% 30.09 in 6.2 mi Calm Calm - N/A   Scattered Clouds
7:20 PM 64.4 °F 51.8 °F 64% 30.09 in 6.2 mi Calm Calm - N/A   Scattered Clouds
7:50 PM 60.8 °F 53.6 °F 77% 30.12 in 6.2 mi NNW 5.8 mph - N/A   Scattered Clouds
8:20 PM 60.8 °F 53.6 °F 77% 30.12 in - NW 4.6 mph - N/A   Unknown
8:50 PM 59.0 °F 53.6 °F 82% 30.12 in - NW 4.6 mph - N/A   Unknown
9:20 PM 59.0 °F 53.6 °F 82% 30.12 in - NW 4.6 mph - N/A   Unknown
9:50 PM 59.0 °F 53.6 °F 82% 30.12 in - Variable 3.5 mph - N/A   Unknown
10:20 PM 57.2 °F 53.6 °F 88% 30.12 in - Variable 3.5 mph - N/A   Unknown
10:50 PM 57.2 °F 53.6 °F 88% 30.12 in - Variable 3.5 mph - N/A   Unknown
11:20 PM 57.2 °F 53.6 °F 88% 30.12 in - NW 4.6 mph - N/A Rain Light Rain
11:50 PM 55.4 °F 51.8 °F 88% 30.12 in - Variable 3.5 mph - N/A   Unknown